Location: Fort Worth, Tx
(32.7431°N, 97.3695°W)
Time: 01:45:09
(UTC-04:00)

A-11 Canister half - Pass Details

Date: 01 March 2024
Orbit: 1525 x 1683 km, 47.3° (Epoch: 24 April)

Event Time Altitude Azimuth Distance (km) Brightness Sun altitude
Rises 23:52:58 0° 289° (WNW) 4,746 12.1 -54.2°
Reaches altitude 10° 23:56:33 10° 299° (WNW) 3,741 11.4 -54.8°
Enters shadow 00:00:24 23° 318° (NW) 2,841 10.6 -55.4°
